STARLINK-4518 (53550 NORAD) Tracking and Keplerian Element Data

This shows tracking and keplerian element data for the satellite.

Feedback or suggestion? Click here.




ElementValue
Catalog53550
NameSTARLINK-4518
Epoch Orbit1445
Epoch Day325.09802841
Epoch Year2022
RAAN71.732
Inclination53.22
Eccentricity0.0001506
Argument of Perigee51.1799
Mean Anonmoly308.9327
Mean Motion15.08846793
Decay Rate1.08E-05
L11 53550U 22101Z 22325.09802841 .00001080 00000+0 85941-4 0 9999
L22 53550 53.2200 71.7320 0001506 51.1799 308.9327 15.08846793 14453



Live tracking and technical data element details for STARLINK-4518 (NORAD 53550). STARLINK-4518 can be tracked NOW for your location showing map with azimuth and elevation plus other details from your city location.







IsCatalogInMostPopularTable: catalog: 53550, numindb: 3
Update: records affected: 1



GetName: 53550 STARLINK-4518

Hit Count: updated at: Thu, 08 Dec 2022 20:54:31 GMT